www.pogodaiklimat.ru

Погода и климат >> Архив погоды >> Россия >> Якутия >> Верхоянск


АРХИВ ПОГОДЫ в Верхоянске

Время (UTC), дата Ветер
(напр.,м/с)
 
Видим.   Явления Облачность Т
(С)
Тd
(С)
f
(%)
Тe
(С)
Тes
(С)
Комфортность P
(гПа)
Po
(гПа)
Тmin
(С)
Tmax
(С)
R
(мм)
R24
(мм)
S
(см)
18 22.04 С 2 20 км 4/0
[Ac trans Ci fib]
-2.4 -5.0 82 -6 -6 тепло 1022.2 1004.7
21 22.04 СЗ 1 50 км 3/0
[Ac trans Ci fib]
-0.9 -3.4 83 -3 -2 тепло 1023.3 1005.9 -3.6
00 23.04 СВ 1 50 км ясно +5.0 -2.6 58 +4 +10 тепло 1023.7 1006.7
03 23.04 СЗ 1 50 км ясно +9.0 -1.7 47 +9 +18 тепло 1023.5 1006.7
06 23.04 СВ 2 50 км 1/0
[Ci fib]
+11.1 -0.6 44 +10 +16 тепло 1023.0 1006.4
09 23.04 В 2 50 км ясно +11.4 -0.5 44 +11 +12 тепло 1023.0 1006.4 +11.7
12 23.04 СВ 2 50 км ясно +5.6 -3.5 52 +4 +4 тепло 1023.8 1006.8
15 23.04 штиль 0 20 км ясно -1.5 -3.5 86 -3 -3 тепло 1024.1 1006.6
18 23.04 штиль 0 50 км ясно -3.5 -4.3 94 -5 -5 тепло 1024.2 1006.6
21 23.04 штиль 0 50 км ясно -3.2 -5.3 85 -4 -3 тепло 1024.4 1006.8 -4.3
00 24.04 СВ 2 50 км 1/0
[Ci fib]
+4.7 -2.6 59 +3 +8 тепло 1022.8 1005.7
03 24.04 СВ 2 50 км 1/0
[Ci fib]
+8.6 -2.0 47 +7 +15 тепло 1020.7 1003.9
06 24.04 СВ 3 50 км 3/0
[Ci]
+10.4 -1.7 43 +9 +13 тепло 1018.8 1002.1
09 24.04 В 2 50 км 6/0
[Ci fib]
+10.7 -3.0 38 +10 +11 тепло 1017.4 1000.8 +11.0
12 24.04 Ю 1 50 км 5/0
[Ci fib]
+4.6 -3.5 56 +4 +4 тепло 1017.0 1000.0
15 24.04 штиль 0 20 км 3/0
[Ci fib]
-1.7 -4.8 79 -3 -3 тепло 1016.8 999.4
18 24.04 Ю 1 50 км ясно -3.7 -4.8 92 -6 -6 тепло 1016.5 999.0
21 24.04 штиль 0 50 км ясно -3.0 -5.4 83 -4 -3 тепло 1016.5 999.0 -4.3
00 25.04 СЗ 2 50 км 3/0
[Ac trans]
+4.3 -2.5 61 +2 +6 тепло 1016.6 999.6
03 25.04 СЗ 3 50 км 3/1 1000 м
[Cu hum Ac trans]
+5.5 -2.6 56 +3 +8 тепло 1016.8 999.9
06 25.04 СЗ 3 50 км 9/4 1000 м
[Cb cap Ac trans]
+5.8 -2.2 56 +3 +4 тепло 1016.8 999.9
09 25.04 С 4 50 км 9/5 1000 м
[Cb cap Ac trans]
+3.9 -2.0 65 -0 0 тепло 1017.7 1000.7 +6.1
12 25.04 С 1 50 км 10/8 1300 м
[Sc Ac trans]
+2.2 -0.8 81 +1 +1 тепло 1018.0 1000.9
15 25.04 Ю 1 20 км 10/10 800 м
[Sc]
+0.8 -1.5 85 -1 -1 тепло 1017.2 1000.0
18 25.04 ЮЗ 1 20 км слабый ливневой снег 10/4 600 м
[Cb cap As op]
+0.5 -0.6 92 -2 -2 тепло 1016.2 999.0
21 25.04 З 1 50 км {ливн. осадки} 9/3 1000 м
[Cb cap Ac trans]
+0.1 -0.8 94 -2 -2 тепло 1014.5 997.3 0.0 0.3
00 26.04 СВ 1 50 км {ливн. осадки} 9/3 1000 м
[Cb cap Ac trans]
+2.0 -1.7 76 +1 +3 тепло 1013.6 996.5
03 26.04 В 1 50 км 8/1 1000 м
[Sc Ac trans]
+4.1 -3.4 58 +3 +8 тепло 1011.4 994.5
06 26.04 З 2 50 км 3/3 1000 м
[Cu med, cong]
+6.0 -3.7 50 +4 +8 тепло 1009.9 993.1
09 26.04 З 2 50 км 9/3 1000 м
[Sc Ac trans]
+6.1 -4.3 47 +4 +5 тепло 1008.8 992.1 +6.9
12 26.04 СВ 2 50 км 8/4 1000 м
[Sc Ac trans]
+1.6 -5.0 61 -1 -1 тепло 1008.5 991.5
15 26.04 штиль 0 20 км 8/4 1000 м
[Sc Ac trans]
-0.1 -3.1 80 -1 -1 тепло 1007.5 990.4
18 26.04 С 2 50 км 8/3 1000 м
[Cb cap Ac trans Ci fib]
-1.6 -3.8 85 -5 -5 тепло 1006.8 989.6
21 26.04 СВ 1 50 км 10/4 1000 м
[Cb cap Ac trans Ci fib]
+0.4 -3.2 77 -1 -1 тепло 1005.8 988.7 -2.0
00 27.04 З 1 50 км {ливн. осадки} 8/3 1000 м
[Sc Ac trans]
+3.5 -1.5 70 +2 +5 тепло 1004.6 987.8
03 27.04 СЗ 1 50 км 9/4 1000 м
[Sc Ac trans]
+5.8 -2.5 55 +5 +8 тепло 1003.4 986.8
06 27.04 С 2 50 км 9/3 1000 м
[Sc Ac trans]
+6.8 -2.8 50 +5 +7 тепло 1002.9 986.3
09 27.04 СВ 2 50 км 9/1 1000 м
[Cb cap Ac trans]
+6.5 -3.7 48 +5 +5 тепло 1002.7 986.1 +7.7 0.3
12 27.04 штиль 0 50 км 3/3 1000 м
[Sc]
+4.0 -4.3 55 +4 +4 тепло 1002.9 986.1
15 27.04 штиль 0 20 км 1/1 1000 м
[Sc]
-2.1 -3.6 89 -3 -3 тепло 1003.2 986.1
18 27.04 ЮЗ 1 50 км 1/0
[Ac trans]
-3.1 -4.5 90 -5 -5 тепло 1003.3 986.1
21 27.04 ЮЗ 1 50 км 3/0
[Ac trans]
-1.8 -4.2 84 -4 -3 тепло 1003.1 986.0 -3.5
00 28.04 В 1 50 км ясно +2.4 1001.6 985.0
03 28.04 СЗ 4 50 км 1/1 1000 м
[Cu hum]
+6.2 -5.6 43 +3 +8 тепло 1000.2 983.6
06 28.04 СЗ 4 50 км 1/1 1000 м
[Cu hum]
+6.4 -6.3 40 +3 +7 по сезону 999.5 982.9
09 28.04 С 3 50 км 1/0
[Ci fib]
+6.3 -5.6 42 +4 +5 тепло 999.2 982.6 +6.9
12 28.04 С 2 50 км 1/0
[Ci fib]
+2.4 -6.2 53 -0 -0 тепло 1000.5 983.6
15 28.04 С 2 20 км 3/0
[Ac trans Ci fib]
+0.1 -6.6 61 -3 -3 тепло 1001.6 984.6
18 28.04 С 3 50 км 5/0
[Ac trans Ci fib]
-1.9 -6.1 73 -7 -7 тепло 1003.4 986.3
21 28.04 С 2 50 км 5/0
[Ac trans Ci fib]
-2.6 -6.3 76 -6 -5 по сезону 1005.0 987.7 -3.1
00 29.04 С 3 50 км 9/5 1000 м
[Sc Ac trans]
-1.5 -5.6 74 -6 -5 по сезону 1006.1 988.9
03 29.04 С 2 50 км 9/9 1020 м
[Sc]
-0.4 -5.1 71 -4 -3 по сезону 1006.4 989.3
06 29.04 С 1 50 км 8/8 1020 м
[Sc]
+1.6 -4.6 63 0 +2 по сезону 1006.4 989.4
09 29.04 СЗ 2 50 км 3/3 1000 м
[Sc]
+2.4 -5.0 58 -0 +1 по сезону 1006.5 989.5 +2.6
12 29.04 С 3 50 км 3/0
[Ci fib]
-0.1 -6.4 62 -4 -4 по сезону 1007.1 990.0
15 29.04 СВ 1 20 км 1/0
[Ci fib]
-3.6 -6.5 80 -6 -6 по сезону 1007.7 990.3

 

Местоположение метеостанции Верхоянск (Якутия, Россия): широта 67.57 долгота 133.40 высота над уровнем моря 136 м.

В архиве по умолчанию представлена погода в Верхоянске за последнюю неделю. Архивные данные за месяц целиком и за предыдущие месяцы, начиная с января 2011 года, Вы можете получить, выбрав интересующий диапазон дат из раскрывающегося списка и нажав кнопку "Ввод!".

Внимание! Время в таблицах - всемирное. Для получения местного времени необходимо прибавить поправку, которая в Верхоянске равна 10 ч.

Смотрите также архив погоды в соседних городах и на ближайших метеорологических станциях:

Погода в Батагае (Якутия, Россия) (52 км)
Погода в Екюччю (Якутия, Россия) (118 км)
Погода в Батагай-Алыте (Якутия, Россия) (129 км)
Погода в Усть-Чарках (Якутия, Россия) (162 км)
Погода в Иэме (Якутия, Россия) (274 км)
Погода в Усть-Куйге (Якутия, Россия) (284 км)
Погода в Себян-Кюеле (Якутия, Россия) (294 км)
Погода в Депутатском (Якутия, Россия) (329 км)
Погода в Юбилейной (Якутия, Россия) (373 км)
Погода в Джарджане (Якутия, Россия) (409 км)

Пояснения к столбцам:

Ветер - указаны скорость ветра в м/с - средняя за 10 мин, порывы в срок и между сроками (в фигурных скобках) и направление, откуда дует ветер: С - северный, СВ - северо-восточный, В - восточный, ЮВ - юго-восточный, Ю - южный, ЮЗ - юго-западный, З - западный, СЗ - северо-западный.
Видимость - горизонтальная дальность видимости в метрах или километрах. При видимости от 1 до 10 км при отсутствии осадков обычно наблюдается дымка, при ухудшении видимости до 1 км и менее - туман. В сухую погоду видимость может ухудшаться дымом, пылью или мглою.
Явления - указаны атмосферные явления, наблюдавшиеся в срок или в последний час перед сроком; фигурными скобками обозначены явления, наблюдавшиеся между сроками (за 1-3 часа до срока); квадратными скобками обозначены град или гололедные отложения с указанием их диаметра в мм.
Облачность - указаны через наклонную черту общая и нижняя облачность в баллах и высота нижней границы облаков в метрах; квадратными скобками обозначены формы облаков: Ci - перистые, Cs - перисто-слоистые, Cc - перисто-кучевые, Ac - высококучевые, As - высокослоистые, Sc - слоисто-кучевые, Ns - слоисто-дождевые, Cu - кучевые, Cb - кучево-дождевые. Подробнее классификацию облаков см. в Атласе облаков (PDF).
T - Температура воздуха - температура, измеренная на высоте 2 м над землей.
Td - Температура точки росы - температура, при понижении до которой содержащийся в воздухе водяной пар достигнет насыщения.
f - Относительная влажность воздуха - влажноcть воздуха, измеренная на высоте 2 м над землей.
Te - Эффективная температура - температура, которую ощущает одетый по сезону человек в тени. Характеристика душности погоды. При расчете учитывается влияние влажности воздуха и скорости ветра на теплоощущения человека.
Tes - Эффективная температура на солнце - температура, которую ощущает человек, с поправкой на солнечный нагрев. Характеристика знойности погоды. Зависит от высоты солнца над горизонтом, облачности и скорости ветра. Ночью, в пасмурную погоду, а также при ветре 12 м/с и более поправка равна нулю.
P - Атмосферное давление - приведенное к уровню моря атмосферное давление.
Po - Атмосферное давление - измеренное на уровне метеостанции атмосферное давление.
Tmin - Минимальная температура - минимум температуры воздуха на высоте 2 м над землей.
Tmax - Максимальная температура - максимум температуры воздуха на высоте 2 м над землей.
R - Количество осадков - Количество выпавших осадков за период времени, мм. При наведении курсора мыши на число - период времени, за который выпало указанное количество осадков.
R24 - Количество осадков - Количество выпавших осадков за 24 часа, мм.
S - Снежный покров - Высота снежного покрова, см. При наведении курсора мыши на число - состояние снежного покрова и степень покрытия местности в баллах.